Flag for Russia Weather past 2 weeks in Surgut, Russia

Now
5 °F

Passing clouds.


Feels Like: -2 °F
Forecast: 10 / 15 °F
Wind: 3 mph from Northeast

Location: Surgut Airport

Current Time: Oct 23, 2014 at 11:34:33 AM

Latest Report: Oct 23, 2014 at 11:00 AM


Visibility: 4 mi

Pressure: 29.98 "Hg

Humidity: 85%

Dew point: 1 °F

Location of SurgutLocation

Historic Weather in Surgut — Graph

°F

Surgut temperature yesterday

Maximum temperature yesterday: 10 °F (at 3:00 PM)
Minimum temperature yesterday: 1 °F (at 6:00 AM)
Average temperature yesterday: 6 °F

Past Weeks' High & Low Weather Summary

 TemperatureHumidityPressure
High36 °F (Oct 10, 3:30 PM)100% (Oct 10, 10:30 PM)30.33 "Hg (Oct 10, 10:30 PM)
Low-4 °F (Oct 23, 7:30 AM)63% (Oct 13, 7:30 PM)29.21 "Hg (Oct 21, 5:30 AM)
Average22 °F85%29.85 "Hg
* Reported Oct 8 10:00 AM — Oct 23 10:30 AM, Surgut, Weather by CustomWeather, © 2014

Note: Actual official high and low records may vary slightly from our data, if they occured in-between our weather recording intervals... More about our weather records

Advertising

Surgut weather history for previous 24 hours

 ConditionsComfort  
Time TempWeatherWind HumidityBarometerVisibility
10:30 AM
Oct 23
3 °FPassing clouds.6 mph85%29.98 "Hg4 mi
10:00 AM3 °FPassing clouds.6 mph85%29.95 "Hg4 mi
9:30 AM0 °FPassing clouds.1 mph84%29.95 "Hg4 mi
9:00 AM-4 °FClear.1 mph84%29.95 "Hg4 mi
8:30 AM-2 °FClear.1 mph84%29.95 "Hg4 mi
8:00 AM-2 °FClear.1 mph84%29.95 "Hg4 mi
7:30 AM-4 °FClear.1 mph84%29.95 "Hg4 mi
7:00 AM-2 °FClear.1 mph84%29.95 "Hg4 mi
6:30 AM0 °FClear.3 mph84%29.95 "Hg4 mi
6:00 AM1 °FClear.6 mph85%29.95 "Hg4 mi
5:30 AM1 °FClear.6 mph85%29.95 "Hg4 mi
5:00 AM0 °FClear.3 mph84%29.95 "Hg4 mi
4:30 AM0 °FPassing clouds.6 mph84%29.95 "Hg4 mi
4:00 AM0 °FClear.6 mph84%29.95 "Hg4 mi
3:30 AM0 °FClear.6 mph92%29.95 "Hg4 mi
3:00 AM3 °FClear.6 mph85%29.95 "Hg4 mi
2:30 AM1 °FClear.6 mph85%29.92 "Hg4 mi
2:00 AM3 °FClear.8 mph85%29.92 "Hg4 mi
1:30 AM3 °FClear.6 mph85%29.92 "Hg4 mi
1:00 AM3 °FClear.6 mph85%29.92 "Hg4 mi
12:30 AM5 °FClear.6 mph85%29.92 "Hg4 mi
12:00 AM7 °FClear.6 mph85%29.92 "Hg4 mi
11:30 PM
Oct 22
5 °FClear.8 mph85%29.89 "Hg4 mi
11:00 PM5 °FClear.8 mph85%29.89 "Hg4 mi
10:30 PM5 °FPassing clouds.8 mph92%29.89 "Hg4 mi
10:00 PM5 °FPassing clouds.8 mph92%29.89 "Hg4 mi
9:30 PM7 °FPassing clouds.8 mph85%29.89 "Hg4 mi
9:00 PM9 °FPartly cloudy.8 mph85%29.89 "Hg4 mi
8:30 PM9 °FPassing clouds.10 mph85%29.89 "Hg4 mi
8:00 PM10 °FPassing clouds.10 mph85%29.89 "Hg4 mi
7:30 PM9 °FPassing clouds.10 mph85%29.89 "Hg4 mi
7:00 PM9 °FPassing clouds.13 mph85%29.89 "Hg4 mi
6:30 PM10 °FSnow flurries. Scattered clouds.8 mph79%29.89 "Hg2 mi
6:00 PM10 °FScattered clouds.8 mph85%29.86 "Hg4 mi
5:30 PM10 °FSnow flurries. Scattered clouds.10 mph79%29.86 "Hg4 mi
5:00 PM10 °FScattered clouds.10 mph79%29.86 "Hg4 mi
4:30 PM10 °FBroken clouds.13 mph79%29.86 "Hg4 mi
4:00 PM10 °FScattered clouds.13 mph79%29.86 "Hg4 mi
3:30 PM10 °FScattered clouds.13 mph72%29.83 "Hg4 mi
3:00 PM10 °FScattered clouds.15 mph72%29.83 "Hg4 mi
2:30 PM9 °FScattered clouds.15 mph78%29.83 "Hg4 mi
2:00 PM9 °FScattered clouds.15 mph78%29.80 "Hg4 mi
1:30 PM9 °FScattered clouds.13 mph72%29.80 "Hg4 mi
1:00 PM7 °FScattered clouds.13 mph78%29.80 "Hg4 mi
12:30 PM7 °FScattered clouds.13 mph78%29.80 "Hg4 mi
12:00 PM5 °FScattered clouds.13 mph78%29.77 "Hg4 mi
11:30 AM5 °FScattered clouds.10 mph78%29.77 "Hg4 mi
11:00 AM3 °FScattered clouds.10 mph85%29.77 "Hg4 mi
Weather by CustomWeather, © 2014

See weather overviewHow to use our weather pages